SCP
-0 -0 -0 0 0 -0 -0 -0 0 0 -0 0 0 0 0 0 0 -0 0 -0 0 -0 -0 -0 0 -1 -1 -1 -1 -1 -1 -0
0 -0 0 0 0 0 0 0 0 0 0 0 0 0 0 0 0 0 0 0 -0 -0 -0 -0 0 1 1 1 1 1 0 -1
0 0 0 0 0 0 0 0 0 0 0 0 0 0 0 0 0 0 1 1 0 0 0 0 0 0 1 -0 1 2 1 1
-0 -0 0 0 0 0 0 -0 0 0 0 -0 0 0 1 1 0 0 1 0 -0 0 0 1 0 0 0 0 -0 0 1 2
0 0 0 0 0 0 0 0 0 0 0 0 0 1 1 1 1 1 0 0 -0 -0 0 1 1 0 0 0 0 0 -0 -0
0 0 0 0 0 0 0 0 0 0 0 0 1 1 0 0 0 1 1 0 0 -0 0 0 0 1 -0 -0 0 0 0 0
0 0 0 0 0 0 0 0 0 0 0 0 0 1 1 1 1 0 0 0 0 0 -0 -0 -0 0 0 1 0 1 1 0
0 0 0 0 0 0 0 0 0 0 0 0 0 0 0 0 0 0 0 0 0 0 -0 -0 -0 0 0 0 0 0 1 3
0 0 0 0 0 0 0 0 0 0 0 0 0 0 0 0 0 0 0 0 0 0 0 0 0 -0 0 0 0 0 0 1
0 0 0 0 0 0 0 0 0 0 0 0 0 0 0 0 0 0 0 0 0 0 0 0 0 0 0 -0 -0 -0 0 0
0 0 0 0 0 0 0 0 0 0 0 0 0 0 0 0 0 0 0 0 0 0 0 0 0 0 0 0 0 -0 -0 0
0 0 0 0 0 0 0 0 0 0 0 0 0 0 0 0 0 0 0 0 0 0 0 0 0 0 0 0 0 0 0 0
0 0 0 0 0 0 0 0 0 0 0 0 0 0 0 0 0 0 0 0 0 0 0 0 0 0 0 0 0 0 0 0
0 0 0 0 0 0 0 0 0 0 0 0 0 0 0 0 0 0 0 0 0 0 0 0 0 0 0 -0 0 0 0 0
0 0 0 0 0 0 0 0 0 0 0 0 0 0 0 0 0 0 0 0 0 0 0 0 0 0 0 0 0 0 0 0
0 0 0 0 0 0 0 0 0 0 0 0 0 0 0 0 0 0 0 0 0 0 0 0 0 0 0 0 0 0 0 0
0 0 0 0 0 0 0 0 0 0 0 0 0 0 0 0 0 0 0 0 0 0 0 0 0 0 0 0 0 0 0 0
0 0 0 0 0 0 0 0 0 0 0 0 0 0 0 0 0 0 0 0 0 0 0 0 0 0 0 0 0 0 0 0
0 0 0 0 0 0 0 0 0 0 0 0 0 0 0 0 0 0 0 0 0 0 0 0 0 0 0 0 0 0 0 0
Wind_Speed_500mb
6 8 15 5 1 12 9 3 6 3 8 4 25 27 36 45 63 85 88 56 26 49 29 56 67 74 68 64 65 62 54 46
11 6 10 1 8 7 7 2 5 7 2 5 10 13 17 28 52 58 45 53 16 26 24 51 43 54 73 72 76 67 61 51
10 10 9 14 15 10 9 9 10 6 8 5 13 14 20 21 18 42 44 40 41 32 23 34 30 50 65 67 70 72 63 60
13 9 4 11 6 8 9 9 2 9 7 5 9 12 34 33 23 30 48 46 50 40 34 24 14 24 30 25 41 57 51 43
21 13 14 12 9 6 5 5 5 9 7 5 19 23 31 41 31 24 28 40 45 44 44 39 27 31 17 39 51 31 44 44
10 10 8 14 14 7 10 4 4 3 10 10 12 16 17 27 31 30 24 28 35 40 40 28 28 30 42 33 11 16 32 37
4 9 5 5 14 17 5 12 9 14 17 9 10 13 23 29 27 18 14 21 32 33 28 26 23 26 29 29 26 22 19 39
17 15 17 9 16 12 7 13 18 26 17 8 24 37 22 21 22 17 13 14 23 28 29 31 30 32 34 36 29 30 29 34
8 10 12 10 15 13 12 13 15 10 12 13 10 21 24 27 20 16 9 11 22 28 28 33 35 36 37 46 46 43 41 40
7 7 4 9 6 32 32 21 17 17 11 15 11 17 42 33 22 20 19 21 22 23 24 28 35 43 48 48 56 63 61 51
7 5 7 9 13 8 5 6 6 12 15 23 20 41 22 39 31 31 32 30 31 35 38 35 31 30 37 43 47 47 57 62
5 6 8 5 11 26 9 2 10 33 21 25 22 5 8 36 41 41 44 45 48 50 47 50 51 48 44 43 40 45 50 59
5 6 3 7 7 6 3 10 12 20 15 16 5 4 24 39 48 53 54 54 46 49 57 56 56 60 61 58 59 57 52 52
4 4 7 5 8 1 10 13 16 14 10 12 11 16 26 36 43 42 48 60 59 69 64 55 53 53 59 62 70 62 61 63
10 9 5 9 18 17 10 7 8 15 22 15 28 35 30 33 40 53 55 58 71 64 59 55 56 62 70 79 63 65 67 71
7 13 21 32 23 17 13 11 16 24 27 36 48 35 42 55 54 55 66 63 60 59 57 58 70 72 66 68 71 61 62 62
6 12 6 21 20 20 21 22 26 32 35 39 44 51 47 54 62 73 67 59 61 63 64 67 70 70 74 73 65 63 66 62
8 6 8 7 19 23 28 33 37 38 40 39 36 48 57 60 58 57 57 62 60 58 66 78 71 67 70 73 69 68 65 56
11 4 5 11 13 29 38 42 29 36 48 63 58 47 45 56 72 86 90 85 78 71 69 66 71 80 82 69 66 63 56 56
Wind_Direction_500mb
159 178 130 257 300 193 136 320 61 328 342 143 39 47 53 65 77 79 63 54 13 306 225 221 228 230 229 228 228 224 226 230
309 3 5 116 198 34 12 87 53 302 323 246 26 37 47 58 88 91 95 98 129 349 268 220 228 235 236 231 233 229 227 231
26 28 330 356 1 25 109 137 152 184 261 226 200 146 92 90 105 122 83 85 67 44 29 263 271 256 234 241 236 236 234 240
244 272 188 107 26 79 108 287 33 135 272 233 58 81 106 84 111 105 95 81 68 56 59 57 135 211 212 245 265 247 249 258
341 359 4 51 360 39 128 80 352 121 248 17 97 81 101 115 110 97 72 75 72 64 52 55 35 31 5 226 268 268 255 268
171 221 238 325 344 9 109 95 208 200 124 65 98 108 113 99 90 80 76 71 64 62 55 42 35 35 42 35 241 226 249 282
198 240 355 292 332 321 288 219 154 177 125 145 134 145 140 117 107 89 38 17 28 40 36 24 10 1 9 25 16 344 273 285
349 346 8 324 320 306 52 73 78 115 104 163 111 102 103 128 114 96 57 10 349 357 2 4 357 358 342 340 347 333 320 340
292 334 350 23 327 64 55 33 134 130 151 138 85 87 92 134 111 99 73 3 344 339 340 334 333 331 332 327 326 330 334 326
222 26 17 225 14 86 81 52 50 79 84 77 101 90 85 56 45 24 6 349 340 333 327 326 320 316 317 317 315 316 316 321
133 170 279 358 2 21 86 27 46 81 50 44 74 118 72 22 18 6 358 351 340 332 324 316 313 314 313 311 310 306 304 307
113 146 231 226 307 352 106 63 32 90 82 74 70 66 283 344 341 338 335 324 316 314 317 312 312 309 308 311 308 300 301 295
161 196 279 224 343 3 98 218 106 80 60 34 66 263 319 321 322 324 322 324 319 321 314 304 304 306 306 306 305 296 293 294
85 127 238 325 39 108 182 118 90 73 47 352 318 302 301 303 305 303 308 311 312 307 307 302 304 306 304 301 302 295 293 291
157 211 199 85 113 101 102 92 12 339 331 309 311 310 307 305 304 303 304 303 305 305 307 297 293 297 300 303 300 296 290 288
78 21 99 88 81 66 39 356 321 312 310 306 308 302 302 306 307 307 310 303 304 303 299 297 298 300 298 304 303 299 296 291
58 1 149 49 36 12 0 349 332 320 316 322 311 306 306 308 309 310 306 300 304 298 296 299 304 302 299 300 299 297 295 293
197 195 163 289 331 332 334 331 328 323 322 322 317 312 315 312 312 312 307 306 299 293 297 301 302 302 306 300 295 291 296 285
155 149 315 312 315 322 321 324 314 313 317 320 317 310 307 310 307 304 301 298 293 298 300 301 302 303 301 297 297 291 284 283
Wind_Speed_850mb
6 8 15 5 1 12 9 3 6 3 8 4 25 27 36 45 63 85 88 56 26 49 29 56 67 74 68 64 65 62 54 46
11 6 10 1 8 7 7 2 5 7 2 5 10 13 17 28 52 58 45 53 16 26 24 51 43 54 73 72 76 67 61 51
10 10 9 14 15 10 9 9 10 6 8 5 13 14 20 21 18 42 44 40 41 32 23 34 30 50 65 67 70 72 63 60
13 9 4 11 6 8 9 9 2 9 7 5 9 12 34 33 23 30 48 46 50 40 34 24 14 24 30 25 41 57 51 43
21 13 14 12 9 6 5 5 5 9 7 5 19 23 31 41 31 24 28 40 45 44 44 39 27 31 17 39 51 31 44 44
10 10 8 14 14 7 10 4 4 3 10 10 12 16 17 27 31 30 24 28 35 40 40 28 28 30 42 33 11 16 32 37
4 9 5 5 14 17 5 12 9 14 17 9 10 13 23 29 27 18 14 21 32 33 28 26 23 26 29 29 26 22 19 39
17 15 17 9 16 12 7 13 18 26 17 8 24 37 22 21 22 17 13 14 23 28 29 31 30 32 34 36 29 30 29 34
8 10 12 10 15 13 12 13 15 10 12 13 10 21 24 27 20 16 9 11 22 28 28 33 35 36 37 46 46 43 41 40
7 7 4 9 6 32 32 21 17 17 11 15 11 17 42 33 22 20 19 21 22 23 24 28 35 43 48 48 56 63 61 51
7 5 7 9 13 8 5 6 6 12 15 23 20 41 22 39 31 31 32 30 31 35 38 35 31 30 37 43 47 47 57 62
5 6 8 5 11 26 9 2 10 33 21 25 22 5 8 36 41 41 44 45 48 50 47 50 51 48 44 43 40 45 50 59
5 6 3 7 7 6 3 10 12 20 15 16 5 4 24 39 48 53 54 54 46 49 57 56 56 60 61 58 59 57 52 52
4 4 7 5 8 1 10 13 16 14 10 12 11 16 26 36 43 42 48 60 59 69 64 55 53 53 59 62 70 62 61 63
10 9 5 9 18 17 10 7 8 15 22 15 28 35 30 33 40 53 55 58 71 64 59 55 56 62 70 79 63 65 67 71
7 13 21 32 23 17 13 11 16 24 27 36 48 35 42 55 54 55 66 63 60 59 57 58 70 72 66 68 71 61 62 62
6 12 6 21 20 20 21 22 26 32 35 39 44 51 47 54 62 73 67 59 61 63 64 67 70 70 74 73 65 63 66 62
8 6 8 7 19 23 28 33 37 38 40 39 36 48 57 60 58 57 57 62 60 58 66 78 71 67 70 73 69 68 65 56
11 4 5 11 13 29 38 42 29 36 48 63 58 47 45 56 72 86 90 85 78 71 69 66 71 80 82 69 66 63 56 56
Wind_Direction_850mb
159 178 130 257 300 193 136 320 61 328 342 143 39 47 53 65 77 79 63 54 13 306 225 221 228 230 229 228 228 224 226 230
309 3 5 116 198 34 12 87 53 302 323 246 26 37 47 58 88 91 95 98 129 349 268 220 228 235 236 231 233 229 227 231
26 28 330 356 1 25 109 137 152 184 261 226 200 146 92 90 105 122 83 85 67 44 29 263 271 256 234 241 236 236 234 240
244 272 188 107 26 79 108 287 33 135 272 233 58 81 106 84 111 105 95 81 68 56 59 57 135 211 212 245 265 247 249 258
341 359 4 51 360 39 128 80 352 121 248 17 97 81 101 115 110 97 72 75 72 64 52 55 35 31 5 226 268 268 255 268
171 221 238 325 344 9 109 95 208 200 124 65 98 108 113 99 90 80 76 71 64 62 55 42 35 35 42 35 241 226 249 282
198 240 355 292 332 321 288 219 154 177 125 145 134 145 140 117 107 89 38 17 28 40 36 24 10 1 9 25 16 344 273 285
349 346 8 324 320 306 52 73 78 115 104 163 111 102 103 128 114 96 57 10 349 357 2 4 357 358 342 340 347 333 320 340
292 334 350 23 327 64 55 33 134 130 151 138 85 87 92 134 111 99 73 3 344 339 340 334 333 331 332 327 326 330 334 326
222 26 17 225 14 86 81 52 50 79 84 77 101 90 85 56 45 24 6 349 340 333 327 326 320 316 317 317 315 316 316 321
133 170 279 358 2 21 86 27 46 81 50 44 74 118 72 22 18 6 358 351 340 332 324 316 313 314 313 311 310 306 304 307
113 146 231 226 307 352 106 63 32 90 82 74 70 66 283 344 341 338 335 324 316 314 317 312 312 309 308 311 308 300 301 295
161 196 279 224 343 3 98 218 106 80 60 34 66 263 319 321 322 324 322 324 319 321 314 304 304 306 306 306 305 296 293 294
85 127 238 325 39 108 182 118 90 73 47 352 318 302 301 303 305 303 308 311 312 307 307 302 304 306 304 301 302 295 293 291
157 211 199 85 113 101 102 92 12 339 331 309 311 310 307 305 304 303 304 303 305 305 307 297 293 297 300 303 300 296 290 288
78 21 99 88 81 66 39 356 321 312 310 306 308 302 302 306 307 307 310 303 304 303 299 297 298 300 298 304 303 299 296 291
58 1 149 49 36 12 0 349 332 320 316 322 311 306 306 308 309 310 306 300 304 298 296 299 304 302 299 300 299 297 295 293
197 195 163 289 331 332 334 331 328 323 322 322 317 312 315 312 312 312 307 306 299 293 297 301 302 302 306 300 295 291 296 285
155 149 315 312 315 322 321 324 314 313 317 320 317 310 307 310 307 304 301 298 293 298 300 301 302 303 301 297 297 291 284 283